BS-3B (YURI 3B)

导读

BS-3B(YURI 3B)是日本于1991年8月25日09:00发射的广播通信卫星,隶属于日本BSAT系列卫星系统,主要承担日本本土卫星电视广播传输服务,助力扩大电视信号覆盖范围,提升偏远地区收视质量。该卫星运行于地球静止轨道,通过转发器实现多路高清电视信号转发,在日本卫星广播电视发展初期发挥了重要基础设施作用,推动了日本卫星传媒产业的发展。

Basic Information
目录编号:
21668
目录名称:
BS-3B (YURI 3B)
国际标识:
1991-060A
轨道中心:
EARTH
卫星名称:
BS-3B (YURI 3B)
卫星全名:
--
卫星状态:
在轨 (已飞行12742 天)
发射日期:
1991-08-25 UTC
国别 :
日本 (JP)
星等 :
--
Orbit Information
数据来源 国际轨道数据 AOE轨道数据
星历时间 2026-07-14T07:13:55+0800
9小时前
查看轨道信息
2026-07-09T16:00:00+0800
5天前
查看轨道信息
半长轴 42585.4km 42585.171km
偏心率 0.0004899 0.0004874
轨道倾角 13.397° 13.397°
近地点辐角 176.396° 174.755°
升交点赤经 356.870° 356.897°
平近点角 2.293° 155.599°
近地点 36186.4km 36186.277km
远地点 36228.126km 36227.791km
周期 1457.642分钟 1457.630分钟
每日圈数 0.987897 0.987905
Detailed Information
使用方式:
暂无
2D Orbit Map
3D Orbit Map
Orbit Altitude Analysis Chart
Orbit Inclination Analysis Chart
Orbit Comprehensive Analysis Chart
View Comprehensive Chart